{"data":{"norad_id":54005,"epoch":"2026-09-20T00:27:51.639552Z","epoch_age_seconds":127710,"freshness":"FRESH","line1":"1 54005U 22125AT  26263.01934768  .00001960  00000+0  14124-3 0  9993","line2":"2 54005  53.1611  60.8024 0001288 101.9270 258.1866 15.08823331218801","mean_motion":15.08823331,"eccentricity":0.0001288,"inclination_deg":53.1611,"raan_deg":60.8024,"arg_perigee_deg":101.927,"mean_anomaly_deg":258.1866,"bstar":0.00014124,"rev_number":21880,"period_min":95.438609041498,"perigee_km":538.90331034106,"apogee_km":540.68536945422,"semimajor_km":6917.9313398976,"source":"CELESTRAK","updated_at":"2026-09-21T09:00:33.073330Z"}}